{"data":{"norad_id":57608,"epoch":"2026-05-25T00:13:23.778336Z","epoch_age_seconds":80977,"freshness":"FRESH","line1":"1 57608U 23119G   26145.00930299  .00001235  00000+0  54395-4 0  9992","line2":"2 57608  43.0073  10.9732 0001022 268.2548  91.8186 15.27579517154751","mean_motion":15.27579517,"eccentricity":0.0001022,"inclination_deg":43.0073,"raan_deg":10.9732,"arg_perigee_deg":268.2548,"mean_anomaly_deg":91.8186,"bstar":5.4395e-5,"rev_number":15475,"period_min":94.266778519524,"perigee_km":482.34932894897,"apogee_km":483.75175568262,"semimajor_km":6861.1875423158,"source":"CELESTRAK","updated_at":"2026-05-25T13:38:18.355645Z"}}